Location: Palau
(42.3086°N, 3.1507°E)
Time: 20:56:26
(UTC+00:00)

Cosmos 2219 - Pass Details

Date: 26 May 2020
Orbit: 835 x 859 km, 71.1° (Epoch: 13 July)

Event Time Altitude Azimuth Distance (km) Brightness Sun altitude
Rises 02:09:00 0° 332° (NNW) 3,414 6.7 -18.3°
Reaches altitude 10° 02:11:29 10° 329° (NNW) 2,471 5.9 -18.0°
Maximum altitude 02:17:04 62° 250° (WSW) 945 3.2 -17.4°
Enters shadow 02:21:28 16° 174° (S) 2,033 4.8 -16.9°
